Regional Weather Roundup
Issued by NWS Cleveland, OH

Home | Current Version | Previous Version | Text Only | Print | Product List | Glossary Off
Versions: 1 2 3 4 5 6 7 8 9 10 11 12 13 14 15 16 17 18 19 20 21 22 23 24 25 26 27 28 29 30 31 32 33 34 35 36 37 38 39 40 41 42 43 44 45 46 47 48 49 50

000
ASUS41 KCLE 272002
RWRCLE
OHIO REGIONAL WEATHER ROUNDUP
NATIONAL WEATHER SERVICE CLEVELAND, OH
400 PM EDT WED JUL 27 2016

NOTE: "FAIR" INDICATES FEW OR NO CLOUDS BELOW 12,000 FEET WITH NO
SIGNIFICANT WEATHER AND/OR OBSTRUCTIONS TO VISIBILITY.

OHZ001>008-015>018-024>027-034-035-043-044-272100-
   NORTHWEST OHIO

CITY           SKY/WX    TMP DP  RH WIND       PRES   REMARKS
DEFIANCE       MOSUNNY   89  60  37 S5        29.96F
FINDLAY        MOSUNNY   90  56  31 W8        29.96F
TOLEDO EXPRESS MOSUNNY   87  62  43 SW6       29.96F
TOLEDO EXEC    MOSUNNY   90  60  36 SW7       29.96F
LIMA           MOSUNNY   87  64  46 VRB3      29.97F
$$

OHZ009>014-019>023-028>033-038-089-272100-
   NORTHEAST OHIO

CITY           SKY/WX    TMP DP  RH WIND       PRES   REMARKS
CLE-HOPKINS    MOSUNNY   89  56  32 N9        29.99F
CLE-LAKEFRONT  SUNNY     84  65  52 NW9       29.96F
CUY CO. ARPT   NOT AVBL
LORAIN-ELYRIA  SUNNY     87  60  40 N6        29.98F
ASHTABULA      SUNNY     84  62  47 N8        29.99F
AKRON-CANTON   MOSUNNY   87  56  34 S6        29.99F
WOOSTER        SUNNY     89  57  33 NE3       29.98F
MANSFIELD      MOSUNNY   87  57  35 CALM      29.99F
YOUNGSTOWN     PTSUNNY   87  59  38 NE8       29.99F
$$

OHZ042-051>053-060>062-070>072-077>081-272100-
  SOUTHWEST OHIO

CITY           SKY/WX    TMP DP  RH WIND       PRES   REMARKS
CINC-COVINGTON CLOUDY    86  72  62 W5        29.98F HX  92
CINC-LUNKEN    MOSUNNY   88  72  58 W9        29.96F HX  94
HAMILTON       PTSUNNY   89  67  47 W7        29.97F HX  92
DAYTON         MOSUNNY   88  62  41 W5        29.99F
WRIGHT-PAT AFB NOT AVBL
DAYTON GENERAL SUNNY     89  64  43 W10       29.97F HX  90
WILMINGTON     MOSUNNY   90  68  48 W8        29.98F HX  94
$$

OHZ036-037-039>041-045>050-054>059-063>069-073>076-082>088-272100-
  CENTRAL AND SOUTHEAST OHIO

CITY           SKY/WX    TMP DP  RH WIND       PRES   REMARKS
COLUMBUS       MOSUNNY   87  65  47 N9        29.96F
OSU AIRPORT    MOSUNNY   90  65  43 W6        29.96F HX  92
BOLTON FIELD     N/A     88  66  48 CALM        N/A  HX  90
RICKENBACK AFB MOSUNNY   89  68  50 W7        29.95F HX  92
NEWARK         SUNNY     89  65  44 VRB3      29.96F HX  91
MARION         MOSUNNY   90  56  31 NW6       29.98F
LANCASTER      SUNNY     86  69  56 VRB6      29.97F HX  90
ZANESVILLE     PTSUNNY   91  67  44 W3        29.96F HX  94
NEW PHILLY     MOSUNNY   95  59  30 VRB5      29.96F HX  94
$$




USA.gov is the U.S. government's official web portal to all federal, state and local government web resources and services.